Location: Dolní Dlouhá
(48.6893°N, 14.2794°E)
Time: 10:38:35
(UTC+00:00)

Daily predictions for brighter satellites

Satellite Brightness Start Highest point End
(mag) Time Altitude Azimuth Time Altitude Azimuth Time Altitude Azimuth
Cosmos 1725 Rocket 4.4 17:57:03 10° NNW 18:03:13 71° W 18:09:22 10° S
Iridium 4 Rocket 3.1 18:02:30 10° N 18:06:42 85° W 18:11:04 10° S
Cosmos 2237 Rocket 3.5 18:03:37 10° NW 18:08:55 44° WSW 18:14:12 10° S
Intercosmos 25 Rocket 4.0 18:03:09 10° N 18:09:21 58° ENE 18:13:15 10° SSE
Cosmos 1766 3.1 18:08:32 10° S 18:12:17 70° E 18:16:06 10° NNE
BREEZE M DEB (TANK) 1.8 18:16:07 10° W 18:18:38 70° N 18:20:52 11° E
SL-4 R/B 2.4 18:15:21 10° WSW 18:20:03 79° NNW 18:24:41 10° ENE
CSL-04 Debris 4.2 18:17:25 10° SSE 18:22:46 63° ENE 18:28:11 10° N
Okean O Rocket 1.7 18:18:31 10° SSE 18:22:55 82° WSW 18:27:19 10° NNW
Cosmos 2221 Rocket 3.5 18:21:59 10° N 18:26:25 83° E 18:30:50 10° S
Okean-O 3.0 18:26:21 10° SE 18:30:35 47° ENE 18:34:51 10° N
CZ-4B R/B 4.0 18:27:08 10° S 18:32:40 56° WSW 18:38:10 10° NNW
Landsat 5 4.4 18:32:00 10° NE 18:35:21 25° E 18:38:47 10° SSE
IGS 5A 4.1 18:32:42 10° S 18:36:46 57° W 18:40:51 10° NNW
SPOT 1/Viking Rocket 3.9 18:33:07 10° SE 18:38:05 48° ENE 18:43:07 10° N
NOSS 2-1 (E) 2.8 18:35:05 10° SSW 18:38:18 53° SE 18:41:23 10° NE
Cosmos 1943 3.8 18:33:46 10° NNW 18:39:03 40° NE 18:43:08 16° ESE
Spot 1 4.5 18:34:48 10° NNE 18:39:56 83° ESE 18:45:05 10° SSW
Meteor 2-5 Rocket 3.8 18:34:50 10° N 18:40:43 68° ENE 18:46:38 10° SSE
Cosmos 1271 Rocket 3.1 18:37:21 10° SSW 18:41:02 64° WNW 18:44:43 10° N
Cosmos 1464 Rocket 4.1 18:36:43 10° N 18:43:02 59° ENE 18:49:19 10° SSE
Cosmos 1603 4.5 18:40:18 10° NNW 18:45:35 36° NE 18:49:14 18° ESE
Cosmos 2297 Rocket 3.7 18:43:17 10° WSW 18:48:34 39° NW 18:53:53 10° NNE
USA 281 3.7 18:44:53 10° NNE 18:51:24 67° WNW 18:57:54 10° SW
Cosmos 1891 Rocket 4.5 18:45:17 10° N 18:51:33 84° E 18:57:55 10° S
Meteor 1-12 Rocket 4.2 18:49:05 10° S 18:54:50 89° ESE 19:00:32 10° NNE
BlueWalker 3 2.3 18:51:36 10° WSW 18:55:29 66° NNW 18:58:58 13° ENE
SPOT 5 4.3 18:56:11 18° E 18:58:00 22° ENE 19:01:50 10° N
USA 215 3.4 18:53:02 10° NE 18:59:36 80° NNW 19:06:09 10° WSW
Cosmos 2082 3.6 18:55:35 10° SSW 19:01:12 83° ESE 19:06:51 10° NNE
Landsat 7 4.4 18:56:45 10° S 19:01:23 59° W 19:06:04 10° NNW
Cosmos 1674 Rocket 4.4 18:57:43 10° NNW 19:01:55 52° W 19:06:05 10° S
Lacrosse 5 rocket 3.2 19:00:40 10° WNW 19:04:19 27° N 19:07:48 10° NE
CARTOSAT-1 4.0 19:02:58 25° SE 19:04:58 43° ENE 19:09:03 10° N
Cosmos 1025 Rocket 3.3 19:01:30 10° N 19:05:40 47° ENE 19:07:39 27° SE
Cosmos 2227 Rocket 3.4 19:00:22 10° SW 19:05:47 45° NW 19:11:14 10° NNE
CZ-4C R/B 3.2 18:58:52 10° NW 19:06:02 73° SW 19:13:26 15° SSE
Meteor 1-22 Rocket 4.4 19:01:52 10° S 19:07:58 88° ESE 19:13:58 10° NNE
Cosmos 1340 Rocket 2.7 19:07:17 10° N 19:11:09 62° ENE 19:12:47 31° SE
Cosmos 2219 4.0 19:05:43 10° SW 19:11:11 53° WNW 19:16:43 10° NNE
Cosmos 1470 3.4 19:07:44 10° SSW 19:11:34 57° WNW 19:15:25 10° N
Cosmos 1908 3.1 19:08:49 17° S 19:11:36 57° E 19:15:19 10° NNE
CZ-4 R/B 4.1 19:13:14 10° SW 19:15:58 18° W 19:18:45 10° NW
RESURS DK-1 2.3 19:13:06 10° SSW 19:17:08 60° ESE 19:21:13 10° NE
Cosmos 1816 Rocket 4.4 19:11:42 10° S 19:17:41 61° E 19:23:43 10° NNE
MOS 1 4.3 19:14:21 20° SSE 19:18:21 71° ENE 19:24:03 10° NNW
Terra 3.2 19:17:45 20° ENE 19:18:28 21° ENE 19:21:58 10° NNE
Cosmos 1992 Rocket 4.3 19:13:31 10° SSW 19:18:42 71° WNW 19:23:56 10° NNE
CSL-04 Rocket 4.4 19:13:40 10° S 19:19:05 54° W 19:24:29 10° NNW
Meteor 1-24 Rocket 4.2 19:13:46 10° NNW 19:19:45 69° W 19:25:44 10° S
SJ 16-02 1.8 19:17:05 10° NNW 19:21:25 60° WSW 19:24:28 19° S
Cosmos 1634 Rocket 4.5 19:16:48 10° N 19:22:48 43° ENE 19:25:22 30° ESE
ATLAS 2AS CENTAUR R/B 3.0 19:15:49 10° S 19:23:06 49° ESE 19:30:08 10° NE
IRS-1A Rocket 4.4 19:19:48 24° SE 19:23:22 66° ENE 19:29:07 10° N
SL-16 R/B 3.7 19:20:01 10° NW 19:25:05 34° WSW 19:30:07 10° SSW
ISS -1.1 19:23:54 10° WSW 19:25:22 12° SW 19:26:39 10° SSW
Cosmos 1503 Rocket 4.0 19:21:55 10° NNW 19:27:14 84° WSW 19:30:19 26° SSE
Timation 2 Rocket 4.1 19:23:53 10° S 19:29:46 49° ESE 19:35:55 10° NE
NOSS 2-1 (C) 4.1 19:27:03 10° WSW 19:30:04 39° NW 19:33:05 10° NNE
Cosmos 2344 4.4 19:25:08 10° NW 19:33:09 53° NE 19:39:31 25° ESE
H-2A R/B 2.9 19:33:56 43° E 19:34:39 47° ENE 19:38:55 10° N
NOSS 2-1 (D) 4.4 19:31:46 10° WSW 19:34:51 36° NW 19:37:54 10° NNE
USA 267 3.9 19:31:34 20° SSE 19:35:49 46° SW 19:42:05 10° WNW
Aureole 1 Rocket 2.6 19:32:45 10° NNW 19:36:40 57° ENE 19:36:42 57° ENE
Cosmos 2263 Rocket 2.3 19:33:03 10° SSW 19:38:37 76° WNW 19:44:13 10° NNE
Resurs 01 Rocket 2.1 19:36:36 21° S 19:39:27 57° W 19:43:49 10° NNW
Cosmos 1758 3.3 19:37:31 20° SSW 19:40:07 76° W 19:44:04 10° N
ERS-1 Rocket 3.5 19:39:41 36° E 19:40:26 38° ENE 19:45:04 10° N
Meteor 2-10 Rocket 3.7 19:40:53 42° ESE 19:41:07 43° E 19:45:50 10° NNE
MetOp-A 3.9 19:40:19 35° SSE 19:42:35 86° ENE 19:47:33 10° NNW
ATLAS 3B R/B 3.2 19:36:04 10° NW 19:43:32 59° NE 19:47:05 33° ESE
Cosmos 1844 Rocket 4.1 19:46:30 22° ENE 19:46:30 22° ENE 19:48:57 10° NE
Meteor 1-21 Rocket 4.5 19:38:46 10° N 19:44:38 57° ENE 19:46:24 41° SE
GEOS 3 Rocket 3.9 19:41:50 10° NE 19:47:13 73° NW 19:52:35 10° SW
Cosmos 2034 Rocket 4.2 19:43:56 10° NNW 19:50:05 69° W 19:54:36 19° S
Cosmos 1703 3.3 19:47:58 10° NNW 19:51:50 73° W 19:52:14 64° SSW
SPOT 3 Rocket 3.6 19:53:08 50° ESE 19:54:06 59° ENE 19:59:14 10° N
Cosmos 1777 Rocket 4.0 19:48:58 10° NNW 19:54:13 78° WSW 19:55:52 44° S
ADEOS Rocket 3.5 19:53:49 39° ESE 19:56:11 56° ENE 20:03:24 10° N
Cosmos 1975 Rocket 3.5 19:53:22 10° NNW 19:57:47 60° W 19:59:18 38° SSW
Cosmos 1300 Rocket 3.5 19:56:52 51° SSW 19:57:56 84° WNW 20:02:18 10° N
SL-4 R/B 2.6 19:55:06 10° WNW 19:59:44 59° N 20:00:43 47° NE
Cosmos 1536 Rocket 4.2 20:00:18 10° N 20:03:52 43° NE 20:03:52 43° NE
Cosmos 1953 3.2 20:07:38 41° NNE 20:07:38 41° NNE 20:10:22 10° NNE
Tsikada Rocket 3.9 20:02:35 21° S 20:06:55 85° W 20:13:07 10° N
Cosmos 1809 Rocket 4.3 20:08:24 48° SSE 20:10:08 71° E 20:16:19 10° NNE
Meteor 1-16 Rocket 4.1 20:08:47 38° S 20:11:00 90° W 20:16:30 10° NNE
USA 245 3.5 20:11:42 83° NNW 20:11:42 83° NNW 20:16:23 10° NNW
Cosmos 2084 3.6 20:07:43 10° NW 20:10:54 59° NNW 20:10:54 59° NNW
Ariane Rocket 3.0 20:11:03 56° S 20:12:05 76° WSW 20:17:11 10° NNW
Cosmos 990 Rocket 4.1 20:10:09 10° NNW 20:15:21 57° ENE 20:15:26 57° ENE
Cosmos 2279 Rocket 3.9 20:13:06 10° N 20:19:20 70° ENE 20:20:14 61° SE
Cosmos 1300 3.9 20:20:49 38° N 20:20:49 38° N 20:23:15 10° N
Spot 2 Rocket 3.3 20:22:05 81° ESE 20:22:16 83° ENE 20:27:23 10° NNW
Cosmos 1943 4.2 20:17:54 10° NW 20:23:07 40° WSW 20:24:57 31° SSW
Cosmos 2227 4.5 20:17:26 10° SW 20:23:10 68° WNW 20:28:56 10° NNE
Cosmos 1603 4.4 20:24:25 10° NW 20:29:51 45° WSW 20:31:09 39° SW
Cosmos 2180 Rocket 4.5 20:23:42 10° N 20:30:04 65° ENE 20:30:30 63° E
Cosmos 1898 Rocket 4.1 20:25:15 10° NNW 20:30:04 46° NE 20:30:04 46° NE
BlueWalker 3 3.4 20:30:45 10° WNW 20:33:42 36° NNW 20:33:42 36° NNW
SPOT 5 3.2 20:35:23 58° WSW 20:35:36 59° W 20:40:37 10° NNW
ARIANE 5 R/B 4.1 20:38:44 29° NNE 20:38:44 29° NNE 20:41:22 10° N
Sich 1 Rocket 4.3 20:41:36 53° NNW 20:41:36 53° NNW 20:45:09 10° N
USA 215 4.1 20:36:03 10° ENE 20:42:14 47° N 20:48:25 10° W
Meteor 1-11 4.2 20:37:05 10° N 20:42:35 78° NE 20:42:35 78° NE
Lacrosse 5 rocket 3.1 20:40:31 10° NW 20:43:37 27° N 20:43:37 27° N
Cosmos 1833 Rocket 3.8 20:39:39 10° NNW 20:44:41 31° NE 20:44:41 31° NE
NOSS 3-1 (C) 4.0 20:37:38 10° NW 20:44:53 82° NE 20:46:35 60° ESE
Meteor 2-21 Rocket 4.3 20:47:14 80° E 20:47:14 80° E 20:53:26 10° NNE
NOSS 2-2 (C) 4.2 20:45:18 10° NW 20:49:13 63° N 20:49:13 63° N
Cosmos 2082 Rocket 4.1 20:47:58 10° N 20:51:44 18° NE 20:52:39 17° NE
H-2A R/B 4.0 20:49:40 10° NNE 20:51:12 21° NNE 20:51:12 21° NNE
Terra 2.5 20:56:29 51° WNW 20:56:29 51° WNW 21:00:24 10° NNW
Nadezhda 4 Rocket 4.3 21:09:59 57° NE 21:09:59 57° NE 21:14:54 10° NNE
SME Rocket 4.4 21:11:00 59° SW 21:11:35 61° WSW 21:16:53 10° NNW
ATLAS 2AS CENTAUR R/B 3.5 21:06:40 10° WSW 21:14:06 54° NW 21:21:14 10° NE
ERS-1 Rocket 4.4 21:19:38 32° W 21:19:38 32° W 21:23:46 10° NNW
Cosmos 1844 4.2 21:22:50 59° NNW 21:22:50 59° NNW 21:27:46 10° NNE
Cosmos 1844 Rocket 3.3 21:28:04 51° NW 21:28:04 51° NW 21:33:17 10° NNE
USA 229 DEB 4.1 21:21:27 10° NW 21:28:39 61° NE 21:29:16 59° ENE
USA 229 4.1 21:21:33 10° NW 21:28:45 60° NE 21:29:22 59° ENE
ATLAS 3B R/B 3.5 21:27:05 10° NW 21:34:14 45° WSW 21:34:21 45° WSW
ADEOS Rocket 4.4 21:40:44 32° WSW 21:41:59 34° W 21:48:36 10° NNW
COSMOS 2406 4.5 21:39:10 10° NNW 21:43:23 34° NNE 21:43:23 34° NNE
Cosmos 2344 4.4 21:39:23 10° NW 21:48:02 58° WSW 21:49:32 54° SSW
NOSS 3-1 (A) 4.0 21:47:11 10° NW 21:54:04 74° W 21:54:04 74° W
ATLAS CENTAUR R/B 3.8 22:16:21 10° WNW 22:23:02 44° NNW 22:23:02 44° NNW
USA 215 4.1 22:22:11 33° ENE 22:24:34 46° N 22:30:44 10° WNW
Cosmos 1833 Rocket 4.2 22:23:24 10° NW 22:26:22 31° NW 22:26:22 31° NW
Cosmos 2082 Rocket 3.6 22:31:14 10° NNW 22:34:29 35° NNW 22:34:29 35° NNW
Cosmos 2278 Rocket 3.8 22:52:24 30° NNE 22:52:24 30° NNE 22:55:12 10° NNE
Lacrosse 5 4.1 23:51:05 19° NE 23:51:05 19° NE 23:52:31 10° NE
